Theta_e
351 351 351 351 351 349 347 347 346 343 340 344 352 352 352 349 350 349 350 352 353 353 352 352 353 351 352 349 348 346 348 350 349 349 351 352 350 348 346 343 339 340 341
349 351 351 352 352 351 350 348 348 345 345 339 341 352 352 351 353 349 349 352 350 353 353 352 353 351 350 347 353 350 349 351 350 348 349 348 349 349 345 344 342 341 341
351 350 350 351 351 350 350 350 349 348 348 346 342 340 350 351 351 352 352 352 352 352 354 353 352 352 349 351 352 349 351 347 349 349 346 350 348 349 349 346 345 344 342
352 351 351 350 349 351 350 349 350 349 347 345 343 339 339 343 347 349 349 351 352 351 352 352 352 353 351 349 347 347 351 351 351 351 349 349 349 347 348 346 345 344 343
353 352 352 352 351 352 352 352 352 352 352 351 351 350 348 346 348 345 343 349 352 352 353 351 351 352 352 352 350 351 350 350 350 349 349 346 348 348 345 346 345 343 343
351 353 352 352 352 351 352 350 351 352 353 352 352 351 353 352 351 350 345 344 350 351 352 351 350 351 350 347 345 345 343 344 346 349 348 347 348 348 347 346 344 343 342
345 346 348 346 345 344 345 344 344 347 352 351 351 351 351 351 351 351 346 343 348 349 349 351 352 350 350 347 342 344 343 343 346 343 343 343 348 349 348 346 345 344 343
345 347 347 345 348 350 347 350 352 354 355 354 352 352 351 352 351 350 346 345 341 341 347 350 350 350 350 350 352 348 345 345 345 344 344 343 350 347 347 347 345 345 344
355 358 358 356 357 359 358 359 356 356 352 352 353 354 352 351 352 353 350 346 347 342 340 340 345 348 348 350 351 350 350 350 350 348 344 343 345 346 345 346 344 344 343
359 358 355 349 347 349 350 347 335 340 344 351 350 350 351 352 351 352 352 347 348 349 346 346 345 343 343 343 348 347 348 348 349 346 344 341 341 344 344 344 344 342 343
353 349 344 338 334 332 331 332 333 335 340 341 346 346 345 348 351 350 351 348 348 348 348 348 347 345 344 341 344 342 341 345 349 348 346 343 342 343 344 346 344 345 342
339 336 333 332 330 331 328 329 333 335 342 341 344 345 345 345 344 348 348 348 348 347 347 347 347 346 343 343 343 340 339 340 345 347 346 343 342 343 343 343 343 341 340
337 333 330 328 328 330 333 334 335 335 335 336 338 338 341 345 346 347 343 344 348 347 347 347 347 345 341 341 339 340 341 343 343 346 345 344 341 341 340 339 339 341 340
331 328 328 330 332 332 333 333 332 333 335 336 337 338 340 342 344 344 344 344 345 347 347 344 345 346 343 343 342 342 343 343 344 346 344 343 342 340 338 339 338 337 336
334 335 334 335 330 333 328 329 330 329 330 333 335 337 337 338 340 341 342 343 344 345 344 339 338 340 341 341 343 340 337 336 341 343 344 343 341 340 337 335 335 334 334
337 336 336 336 336 336 334 334 332 329 329 331 331 332 336 337 338 339 339 340 342 342 343 343 342 342 342 342 341 341 339 338 338 340 342 341 338 334 332 332 332 330 330
338 337 335 332 335 335 335 335 332 331 328 328 328 330 332 335 336 336 336 337 338 339 339 341 341 340 341 341 341 341 341 341 340 341 339 336 333 331 330 329 326 326 325
337 335 335 334 335 335 334 333 332 331 328 326 328 328 328 330 333 335 336 338 338 337 337 336 337 336 336 335 336 336 336 334 329 329 330 328 328 326 324 323 323 322 322
337 335 334 334 335 333 332 333 331 331 329 325 327 329 328 329 330 330 330 331 331 332 332 333 333 331 330 330 330 329 328 327 327 327 326 325 324 325 323 322 320 316 319
336 335 333 334 334 331 331 330 331 330 330 324 325 326 327 326 326 330 331 326 326 330 330 328 328 327 327 327 327 327 327 327 328 328 327 325 323 320 316 316 319 319 318
334 334 331 333 332 329 329 329 328 327 329 330 320 321 322 323 325 324 323 326 329 325 322 326 330 327 327 328 327 327 325 322 324 326 325 321 317 318 320 320 319 319 319
333 331 331 331 331 330 330 329 327 326 324 327 329 325 319 324 324 325 324 326 324 326 328 329 326 325 328 328 328 328 328 327 325 323 319 317 320 321 320 319 318 318 318
331 334 331 330 332 331 330 331 327 325 324 322 325 328 327 325 326 324 323 323 325 326 327 327 327 327 324 322 319 321 323 323 322 320 319 320 319 319 318 317 317 317 317
334 330 331 331 331 328 329 332 328 326 321 321 321 323 327 327 325 324 325 327 326 325 325 324 325 325 325 324 323 323 322 321 320 320 320 319 318 318 317 317 317 317 317
333 331 329 330 330 330 328 328 326 326 327 326 324 322 320 322 325 325 326 326 326 326 325 324 324 324 325 324 323 323 323 322 320 319 319 319 318 317 318 318 318 317 317
329 330 330 329 329 328 330 327 326 326 327 327 326 326 323 322 324 324 325 325 326 326 325 324 324 322 322 322 323 322 321 321 320 318 318 318 318 318 318 318 319 318 318
Wind_Speed
20 20 20 21 20 20 21 19 19 19 20 18 14 14 15 15 15 15 12 14 13 11 11 10 8 10 10 9 9 9 9 10 7 5 8 10 15 16 13 12 9 8 3
18 20 20 20 21 20 20 20 19 20 20 20 18 16 15 15 16 16 15 14 15 13 13 14 13 10 14 14 9 9 10 8 12 11 8 9 12 13 13 13 15 11 8
18 19 19 19 19 19 20 20 20 21 22 20 21 22 20 19 18 17 16 16 17 17 16 15 14 13 17 14 13 11 11 12 11 9 13 10 10 10 12 16 17 14 12
20 20 20 21 21 19 20 21 19 20 23 22 23 23 24 23 23 22 20 19 17 16 17 16 16 16 17 15 16 17 12 11 9 9 10 11 12 14 17 16 16 16 14
22 23 22 22 20 21 21 20 19 19 21 22 22 24 25 25 24 24 23 22 20 20 19 18 18 17 18 17 15 16 16 14 13 13 12 15 17 18 18 18 17 15 15
21 21 21 21 21 22 21 21 20 21 22 22 23 23 23 24 24 25 26 25 23 22 21 20 20 20 23 22 20 20 18 18 18 18 11 15 16 17 16 19 20 18 18
19 18 17 17 18 18 18 17 18 18 18 21 23 26 27 26 24 28 25 27 25 24 24 23 21 20 21 19 22 21 21 21 20 17 18 18 15 17 18 18 20 17 19
19 17 15 16 14 14 16 16 16 16 18 20 22 24 27 27 27 28 26 28 30 31 27 24 24 24 21 21 19 20 22 23 23 22 20 19 13 17 18 16 14 20 23
14 12 12 11 11 12 13 15 17 18 21 23 23 24 25 27 27 27 28 27 28 32 33 33 30 27 26 26 26 23 20 20 22 18 19 19 19 18 15 19 17 19 23
13 13 12 13 13 12 13 17 20 21 22 22 24 25 24 26 24 25 28 24 22 25 29 31 31 33 31 28 28 27 26 22 20 19 21 20 21 21 20 18 18 19 23
10 10 10 11 14 16 19 20 21 22 22 23 21 21 26 27 26 27 27 25 24 24 25 25 29 29 30 32 29 26 27 23 23 21 14 17 19 20 21 20 20 19 19
8 7 9 12 14 14 18 18 18 19 18 19 19 21 19 22 23 26 28 28 26 24 27 26 31 29 30 26 29 28 27 25 26 22 21 20 21 22 20 22 23 22 19
6 7 9 11 12 13 13 14 15 17 17 18 20 22 19 17 18 21 27 28 26 27 30 26 30 30 29 27 25 29 27 27 28 27 26 25 23 21 20 21 19 20 19
5 4 4 3 3 5 5 9 12 14 14 18 20 19 18 20 21 20 22 23 25 26 28 29 30 27 25 28 28 29 27 28 28 29 29 34 25 20 20 20 20 20 18
5 4 4 3 4 5 8 11 14 18 18 16 17 20 22 20 18 19 19 20 20 20 22 25 28 29 28 29 31 32 36 32 30 35 34 31 27 23 24 22 19 20 22
6 4 4 2 3 5 6 12 18 18 22 17 15 16 18 20 20 20 18 18 19 20 22 26 28 29 28 28 28 28 29 30 30 31 33 33 28 27 28 26 23 17 18
6 5 4 2 4 5 7 6 9 14 19 20 17 15 13 16 18 18 19 18 19 20 23 23 23 25 28 26 27 28 28 31 33 33 34 28 29 33 32 27 24 21 16
7 9 5 7 6 6 5 5 5 8 11 19 21 14 11 5 7 10 11 11 11 11 13 15 17 19 21 21 23 27 29 31 29 28 30 33 33 29 24 23 20 18 17
8 8 6 7 5 5 3 6 3 4 7 14 15 18 23 18 13 12 7 2 4 6 6 7 6 5 6 8 11 14 16 19 22 27 29 27 24 22 20 20 20 17 21
9 8 7 4 3 3 5 5 6 4 3 8 13 13 15 19 23 23 20 21 22 21 19 14 12 10 10 13 15 17 22 24 25 23 21 22 20 19 18 18 17 21 20
5 5 6 5 5 4 4 5 5 4 5 1 9 10 12 13 16 16 18 13 13 13 17 18 17 19 20 21 19 19 20 20 18 16 21 19 17 18 17 16 19 23 23
7 4 4 5 7 4 5 4 4 4 4 4 7 6 7 7 8 9 12 10 10 7 4 8 10 11 11 12 13 13 14 16 18 19 19 22 21 20 20 20 19 21 22
7 12 5 7 5 6 6 6 5 5 5 4 4 6 4 2 0 2 4 2 2 3 3 5 4 6 6 6 6 9 12 14 17 17 19 20 21 18 19 19 20 20 20
11 8 6 6 5 6 8 8 5 6 6 4 5 6 6 5 3 3 3 2 2 3 3 5 7 6 7 9 12 13 13 13 14 16 18 19 19 18 18 20 20 20 20
10 9 8 10 8 6 5 5 6 6 6 5 5 5 5 8 7 6 5 5 5 5 6 6 7 8 11 12 11 11 14 14 14 15 17 17 18 18 19 19 19 19 20
9 10 10 9 9 8 7 7 7 8 7 7 6 6 6 7 7 7 7 7 7 6 6 8 8 9 9 11 14 14 15 18 17 18 18 18 18 20 19 21 21 21 22
Wind_Direction
199 205 208 213 219 222 223 227 232 232 229 237 235 239 237 243 234 238 239 239 244 242 227 243 237 243 249 253 245 237 244 240 231 215 187 208 213 233 229 227 230 244 288
203 202 209 212 214 221 225 226 231 239 238 240 236 237 240 238 243 252 241 244 257 248 238 237 242 246 261 245 243 240 232 243 225 223 231 243 206 229 234 225 236 248 256
207 209 209 215 217 220 227 233 229 236 242 238 243 237 236 238 243 243 247 246 242 244 240 241 247 242 245 226 235 241 238 246 251 242 240 222 224 220 214 228 238 240 247
210 212 216 220 223 224 229 230 236 235 239 242 242 246 245 244 243 241 239 244 237 236 240 240 244 237 255 253 236 232 235 230 225 244 239 226 238 229 231 239 242 236 238
208 214 219 227 232 232 229 231 236 236 241 244 242 244 246 245 245 246 239 235 238 234 236 238 240 235 241 244 235 234 224 230 227 236 238 238 236 245 235 236 238 241 236
212 216 220 227 231 235 239 240 238 239 242 241 242 244 244 243 245 245 246 235 234 239 239 232 232 241 243 240 243 240 240 239 235 234 234 244 243 253 249 241 236 229 225
215 216 220 232 235 238 240 241 244 247 245 248 250 246 247 247 242 242 249 244 230 241 243 234 229 239 253 255 242 242 243 241 243 244 243 251 248 253 250 245 244 238 235
214 214 221 226 233 240 239 244 248 252 254 254 256 251 253 250 252 252 250 247 243 235 240 242 242 231 235 245 238 249 241 243 246 248 252 246 247 255 249 253 243 228 227
201 206 214 218 231 240 244 245 247 250 254 255 256 255 253 254 248 248 254 247 247 245 241 241 242 242 239 240 243 241 235 234 238 242 237 245 237 241 236 235 227 220 219
193 203 209 220 230 243 253 263 265 267 267 263 257 257 257 253 254 248 250 245 241 244 247 246 247 244 246 245 240 244 239 232 236 250 238 243 242 241 238 240 238 225 221
192 207 227 245 258 266 270 271 274 269 272 268 258 265 263 259 253 251 254 252 242 248 250 252 251 253 248 244 243 244 246 237 234 237 238 231 230 233 223 225 237 239 229
204 228 257 265 270 266 278 281 279 279 275 280 270 267 266 271 261 256 256 259 255 246 237 245 256 260 247 247 248 244 247 242 240 231 230 241 234 235 227 222 225 228 233
224 251 268 283 288 294 301 300 297 288 280 270 270 274 269 260 257 256 259 259 256 250 241 242 253 259 249 241 242 243 238 238 239 229 229 235 241 232 224 221 224 215 225
227 250 273 292 337 10 10 348 341 322 294 279 277 274 279 272 263 258 261 259 254 250 247 244 235 241 234 238 238 239 235 234 232 226 221 230 240 227 220 223 232 206 188
160 151 131 116 86 21 10 12 9 358 341 307 282 271 269 273 271 267 261 257 253 252 249 246 241 240 244 245 241 239 243 241 242 232 222 228 229 222 204 190 185 183 171
164 159 185 217 334 333 352 337 343 350 355 340 319 288 264 261 263 264 266 259 254 248 245 241 242 249 251 248 242 241 240 239 241 235 230 233 222 193 174 165 156 153 161
189 201 224 224 276 298 312 330 344 350 4 9 354 322 289 272 271 269 263 260 254 248 246 248 251 248 239 238 245 243 245 244 231 223 226 212 195 178 168 153 150 148 163
207 223 227 260 288 284 295 321 339 3 6 15 22 15 23 344 274 261 246 240 238 233 236 245 251 251 250 250 249 243 235 230 218 199 189 178 164 153 145 142 142 150 153
223 222 241 259 274 275 276 291 320 4 5 19 34 35 40 42 54 66 74 134 200 207 212 218 216 210 219 231 237 232 223 202 186 168 156 153 147 148 149 152 155 166 176
230 215 215 265 244 289 283 290 250 302 340 11 32 52 47 51 45 52 68 68 70 75 78 90 106 114 132 135 137 143 150 151 151 155 158 158 156 153 156 161 165 181 182
203 227 230 232 243 266 288 289 289 312 347 294 3 27 60 52 42 39 31 46 63 64 73 81 103 111 120 127 130 134 135 137 143 154 161 157 157 159 170 181 184 190 187
226 245 186 243 219 255 270 282 307 295 304 293 310 349 23 40 43 30 22 16 31 46 87 115 117 119 126 138 156 166 166 167 169 170 171 166 171 184 182 193 199 196 195
223 218 210 246 238 268 274 270 290 295 284 278 268 269 312 308 264 35 48 8 145 145 180 142 172 165 175 184 186 188 187 190 187 185 184 186 191 191 193 195 199 196 203
235 235 230 258 235 279 258 268 297 279 259 280 268 262 261 241 263 248 202 231 223 210 206 191 187 197 218 218 219 217 214 214 214 204 205 210 202 194 205 203 208 210 212
241 231 243 247 240 253 251 262 257 264 277 282 279 280 273 242 248 252 259 261 268 225 242 231 225 228 222 216 217 217 225 224 215 209 205 210 209 210 208 213 214 218 218
235 240 240 242 244 254 254 260 265 264 264 268 272 273 269 260 256 254 255 256 261 259 248 238 234 232 233 233 229 224 227 237 242 218 210 217 217 216 219 221 224 225 224